Home > Weather > Lübeck > Past weeks

Flag for Germany Past Weather in Lübeck, Schleswig-Holstein, Germany — Yesterday and Last 2 Weeks

Now
66 °F

Passing clouds.


Feels Like: 66 °F
Forecast: 56 / 74 °F
Wind: 6 mph from West

Location: Hamburg-Fuhlsbuettel

Current Time: Jul 26, 2016 at 2:57:24 AM

Latest Report: Jul 26, 2016 at 2:20 AM


Visibility: N/A

Pressure: 30.07 "Hg

Humidity: 88%

Dew Point: 63 °F

Location of LübeckLocation

Past Weather in Lübeck — Graph

°F

Lübeck Temperature Yesterday

Maximum temperature yesterday: 81 °F (at 2:50 PM)
Minimum temperature yesterday: 64 °F (at 1:20 AM)
Average temperature yesterday: 71 °F

High & Low Weather Summary for the Past Weeks

 TemperatureHumidityPressure
High84 °F (Jul 21, 3:50 PM)100% (Jul 13, 12:20 AM)30.21 "Hg (Jul 13, 12:20 AM)
Low52 °F (Jul 14, 3:20 AM)42% (Jul 23, 2:20 PM)29.68 "Hg (Jul 11, 4:50 AM)
Average66 °F77%30.02 "Hg
* Reported Jul 11 1:20 AM — Jul 26 1:20 AM, Lübeck, Weather by CustomWeather, © 2016

Note: Actual official high and low records may vary slightly from our data, if they occured in-between our weather recording intervals... More about our weather records

Advertising

Lübeck Weather History for the Previous 24 Hours

Scroll right to see more
 ConditionsComfort  
Time TempWeatherWind HumidityBarometerVisibility
1:20 AM
Tue, Jul 26
66 °FPassing clouds.5 mph88%30.07 "HgN/A
12:50 AM68 °FPartly cloudy.8 mph88%30.07 "HgN/A
12:20 AM68 °FPassing clouds.6 mph88%30.07 "HgN/A
11:50 PM
Mon, Jul 25
68 °FPartly cloudy.8 mph88%30.07 "HgN/A
11:20 PM68 °FPartly cloudy.6 mph88%30.07 "HgN/A
10:50 PM70 °FSprinkles. Partly cloudy.8 mph83%30.07 "HgN/A
10:20 PM70 °FBroken clouds.7 mph83%30.07 "HgN/A
9:50 PM72 °FBroken clouds.5 mph78%30.04 "HgN/A
9:20 PM72 °FBroken clouds.7 mph78%30.04 "HgN/A
8:50 PM72 °FBroken clouds.3 mph83%30.04 "HgN/A
8:20 PM72 °FScattered clouds.5 mph78%30.04 "HgN/A
7:50 PM73 °FScattered clouds.7 mph78%30.04 "HgN/A
7:20 PM75 °FPassing clouds.9 mph74%30.04 "HgN/A
6:50 PM75 °FScattered clouds.7 mph74%30.01 "HgN/A
6:20 PM75 °FPassing clouds.5 mph83%30.01 "HgN/A
5:50 PM77 °FPassing clouds.5 mph69%30.01 "HgN/A
5:20 PM77 °FPassing clouds.3 mph74%30.01 "HgN/A
4:50 PM72 °FThundershowers. Scattered clouds.5 mph88%30.01 "HgN/A
4:20 PM66 °FStrong thunderstorms. Broken clouds.14 mph88%30.04 "Hg2 mi
3:50 PM77 °FThunderstorms. Broken clouds.8 mph65%30.01 "HgN/A
3:20 PM79 °FScattered showers. Broken clouds.10 mph61%30.01 "HgN/A
2:50 PM81 °FScattered showers. Broken clouds.8 mph58%30.01 "HgN/A
2:20 PM79 °FBroken clouds.7 mph61%30.01 "HgN/A
1:50 PM79 °FBroken clouds.7 mph65%30.01 "HgN/A
1:20 PM79 °FPartly sunny.6 mph61%30.01 "HgN/A
12:50 PM79 °FPartly sunny.7 mph61%30.04 "HgN/A
12:20 PM79 °FPartly sunny.7 mph65%30.04 "HgN/A
11:50 AM79 °FPassing clouds.6 mph61%30.04 "HgN/A
11:20 AM77 °FPassing clouds.5 mph69%30.04 "HgN/A
10:50 AM75 °FPassing clouds.5 mph74%30.04 "HgN/A
10:20 AM75 °FPassing clouds.3 mph74%30.04 "HgN/A
9:50 AM72 °FSunny.2 mph83%30.04 "Hg10 mi
9:20 AM72 °FSunny.1 mph83%30.04 "Hg10 mi
8:50 AM72 °FSunny.1 mph83%30.04 "Hg10 mi
8:20 AM70 °FSunny.No wind88%30.04 "Hg10 mi
7:50 AM68 °FSunny.1 mph94%30.04 "Hg10 mi
7:20 AM68 °FSunny.2 mph88%30.04 "Hg10 mi
6:50 AM66 °FSunny.2 mph94%30.04 "Hg10 mi
6:20 AM64 °FClear.2 mph100%30.04 "Hg10 mi
5:50 AM64 °FClear.2 mph94%30.04 "Hg10 mi
5:20 AM64 °FClear.2 mph94%30.04 "Hg10 mi
4:50 AM66 °FClear.2 mph94%30.04 "Hg10 mi
4:20 AM66 °FClear.2 mph94%30.04 "Hg10 mi
3:50 AM66 °FClear.3 mph94%30.04 "Hg10 mi
3:20 AM66 °FClear.1 mph94%30.04 "Hg10 mi
2:50 AM66 °FClear.2 mph94%30.04 "Hg10 mi
2:20 AM66 °FClear.1 mph94%30.04 "Hg10 mi
Weather by CustomWeather, © 2016

See weather overviewHow to use our weather pages